Location: Albany
(35.0000°S, 118.0000°E)
Time: 08:37:44
(UTC-04:00)

Tiangong - Pass Details

Date: 04 October 2021
Orbit: 382 x 385 km, 41.5° (Epoch: 16 October)

Event Time Altitude Azimuth Distance (km) Brightness Sun altitude
Rises 07:01:39 0° 252° (WSW) 2,284 7.2 -10.6°
Reaches altitude 10° 07:03:52 10° 263° (W) 1,425 5.5 -11.0°
Maximum altitude 07:06:46 31° 327° (NNW) 711 2.6 -11.6°
Enters shadow 07:09:22 12° 29° (NNE) 1,315 3.4 -12.1°
